FALCON 9 DEB (45593 NORAD) Tracking and Keplerian Element Data

This shows tracking and keplerian element data for the satellite.

Feedback or suggestion? Click here.




ElementValue
Catalog45593
NameFALCON 9 DEB
Epoch Orbit446
Epoch Day141.49825822
Epoch Year2020
RAAN255.5216
Inclination52.993
Eccentricity0.0006412
Argument of Perigee169.1225
Mean Anonmoly190.9961
Mean Motion16.41012703
Decay Rate0.05761868
L11 45593U 20025BQ 20141.49825822 .05761868 12308-4 36742-3 0 9997
L22 45593 52.9930 255.5216 0006412 169.1225 190.9961 16.41012703 4465

Live tracking and technical data element details for FALCON 9 DEB (NORAD 45593). FALCON 9 DEB can be tracked NOW for your location showing map with azimuth and elevation plus other details from your city location.

Track the satellite on the map from your city or location and see movement details for azimuth, elevation, latitude, longitude, range, height, and movement on the map or in text.







IsCatalogInMostPopularTable: catalog: 45593, numindb: 5
Update: records affected: 1



GetName: 45593 FALCON 9 DEB

Hit Count: updated at: Sat, 30 May 2020 14:48:10 GMT